Tracking 17782 objects as of 26-July-2016
HD Live streaming from Space Station
objects crossing your sky now

SL-8 DEB

Track SL-8 DEB now!
10-day predictions


NORAD ID: 21250
Int'l Code: 1991-009BH
Perigee: 1,492.7 km
Apogee: 1,719.0 km
Inclination: 74.1 °
Period: 118.2 minutes
Semi major axis: 7976 km
RCS: 0.1024 m2 (medium)
Launch date: February 12, 1991
Source: Commonwealth of Independent States (former USSR) (CIS)
Launch site: PLESETSK MISSILE AND SPACE COMPLEX (PKMTR)

Note: This is SATELLITE DEBRIS
Your satellite tracking list
Your tracking list is empty





NASA's NSSDC Master Catalog

Two Line Element Set (TLE):
1 21250U 91009BH  16206.72875536 -.00000008 +00000-0 +59023-4 0  9999
2 21250 074.0610 097.7955 0141798 050.2204 342.9218 12.18585660129008
Source of the keplerian elements: AFSPC

N2YO: 734